www.pogodaiklimat.ru

Погода и климат >> Архив погоды >> Россия >> город Москва >> Москва


АРХИВ ПОГОДЫ в Москве

Время (UTC), дата Ветер
(напр.,м/с)
 
Видим.   Явления Облачность Т
(С)
Тd
(С)
f
(%)
Тe
(С)
Тes
(С)
Комфортность P
(гПа)
Po
(гПа)
Тmin
(С)
Tmax
(С)
R
(мм)
R24
(мм)
S
(см)
15 16.10 З 1 10 км 3/0
[Ci fib]
+14.2 +4.0 50 +15 +15 тепло 1024.2 1005.2
18 16.10 СЗ 1 н/о ясно +13.3 +4.2 54 +14 +14 тепло 1024.0 1004.9 +17.1
21 16.10 штиль 0 н/о ясно +10.8 +4.6 66 +10 +10 тепло 1024.2 1005.0
00 17.10 штиль 0 н/о ясно +8.5 +4.8 78 +8 +8 тепло 1024.5 1005.1
03 17.10 штиль 0 н/о дымка ясно +6.8 +4.7 86 +6 +6 по сезону 1025.1 1005.6 +6.6
06 17.10 З 1 10 км дымка ясно +10.0 +5.2 72 +10 +11 тепло 1025.4 1006.1 +5.5
09 17.10 З 1 10 км ясно +15.1 +5.6 53 +16 +20 тепло 1026.0 1007.1
12 17.10 штиль 0 10 км ясно +15.9 +6.4 53 +16 +18 тепло 1025.7 1006.8
15 17.10 штиль 0 10 км ясно +11.0 +7.4 78 +10 +10 тепло 1025.9 1006.6
18 17.10 штиль 0 н/о дымка ясно +7.7 +6.9 95 +7 +7 по сезону 1026.1 1006.7 +16.4
21 17.10 штиль 0 н/о дымка ясно +6.0 +5.7 98 +5 +5 по сезону 1026.3 1006.7
00 18.10 штиль 0 н/о дымка ясно +5.1 +4.9 99 +4 +4 по сезону 1025.6 1006.0
03 18.10 штиль 0 н/о в посл. час туман ясно +4.6 +4.5 99 +3 +3 по сезону 1024.8 1005.2 +4.5
06 18.10 штиль 0 1000 м дымка {туман} ясно +7.7 +7.6 99 +7 +7 тепло 1024.1 1004.7 +4.3
09 18.10 З 1 10 км ясно +16.8 +7.8 55 +18 +21 тепло 1022.7 1004.0
12 18.10 З 1 10 км ясно +17.7 +7.1 50 +19 +21 тепло 1021.0 1002.3
15 18.10 штиль 0 н/о 3/0
[Ci fib]
+13.1 +8.1 72 +13 +13 тепло 1020.3 1001.3
18 18.10 ЮЗ 1 н/о ясно +13.5 +8.0 69 +14 +14 тепло 1019.4 1000.5 +18.1
21 18.10 З 1 н/о ясно +13.1 +8.3 73 +13 +13 тепло 1018.9 1000.0
00 19.10 штиль 0 н/о ясно +11.0 +8.3 83 +10 +10 тепло 1018.3 999.2
03 19.10 штиль 0 н/о дымка 1/0
[Ac trans]
+10.4 +8.5 88 +10 +10 тепло 1016.9 997.8 +10.0
06 19.10 З 1 10 км дымка 1/0
[Ac trans]
+12.6 +9.1 79 +13 +13 тепло 1016.4 997.4 +9.7
09 19.10 З 1 10 км ясно +15.7 +10.0 69 +16 +20 тепло 1015.7 997.0
12 19.10 СЗ 1 10 км 6/3 600 м
[Cu hum Ac trans Ci fib]
+16.7 +10.3 66 +18 +19 тепло 1015.0 996.4
15 19.10 С 2 н/о 9/8 600 м
[Sc Ac trans]
+14.7 +8.6 67 +14 +14 тепло 1015.5 996.7
18 19.10 С 2 н/о 9/9 600 м
[Sc]
+12.2 +8.6 79 +11 +11 тепло 1016.8 997.9 +17.0
21 19.10 СЗ 1 н/о ясно +8.5 +5.4 81 +8 +8 тепло 1018.2 999.0
00 20.10 штиль 0 н/о дымка ясно +5.2 +4.0 92 +4 +4 по сезону 1019.1 999.6
03 20.10 штиль 0 н/о дымка ясно +3.3 +3.0 98 +2 +2 по сезону 1020.0 1000.3 +3.3
06 20.10 СЗ 1 4000 м дымка ясно +5.3 +3.3 87 +4 +5 по сезону 1020.7 1001.2 +2.5
09 20.10 С 2 10 км 8/8 600 м
[Sc]
+7.7 +2.1 68 +6 +7 по сезону 1021.6 1002.2
12 20.10 СЗ 1 10 км 10/10 1000 м
[Sc]
+7.8 +1.9 66 +7 +7 по сезону 1022.1 1002.8
15 20.10 СЗ 1 н/о 10/10 1000 м
[Sc]
+7.2 +1.5 67 +7 +7 по сезону 1022.3 1002.9
18 20.10 С 1 н/о 10/10 1000 м
[Sc]
+7.1 +1.5 68 +6 +6 по сезону 1022.9 1003.5 +8.7
21 20.10 С 1 н/о 10/10 1000 м
[Sc]
+6.9 +1.5 68 +6 +6 по сезону 1023.5 1004.1
00 21.10 С 1 н/о 10/10 1000 м
[Sc]
+6.6 +0.5 65 +6 +6 тепло 1023.9 1004.4
03 21.10 штиль 0 н/о 10/10 1000 м
[Sc]
+5.9 +1.5 73 +5 +5 по сезону 1024.6 1005.0 +5.9
06 21.10 штиль 0 10 км 10/10 1000 м
[Sc]
+7.0 +0.5 63 +6 +6 тепло 1025.5 1006.0 +5.9
09 21.10 С 1 10 км 10/10 600 м
[Sc]
+7.3 0.0 60 +7 +7 тепло 1026.8 1007.3
12 21.10 штиль 0 10 км 10/10 600 м
[Sc]
+7.8 +0.3 59 +7 +7 по сезону 1026.5 1007.0
15 21.10 штиль 0 н/о 10/10 600 м
[Sc]
+7.0 +1.6 68 +6 +6 по сезону 1026.8 1007.3
18 21.10 штиль 0 н/о 10/10 600 м
[Sc]
+6.9 +1.6 69 +6 +6 по сезону 1027.5 1008.0 +7.9
21 21.10 штиль 0 н/о 10/10 600 м
[Sc]
+6.6 +1.9 72 +6 +6 тепло 1027.4 1007.9
00 22.10 штиль 0 н/о 10/10 600 м
[Sc]
+6.4 +2.0 73 +6 +6 тепло 1026.6 1007.0
03 22.10 штиль 0 н/о 10/10 600 м
[Sc]
+5.8 +1.1 72 +5 +5 по сезону 1026.2 1006.6 +5.8
06 22.10 Ю 1 10 км 10/10 600 м
[Sc]
+5.9 -0.2 65 +5 +5 по сезону 1025.6 1006.0 +5.5
09 22.10 Ю 2 10 км 4/4 600 м
[Cu hum]
+7.7 -1.2 53 +6 +8 по сезону 1023.5 1004.0
12 22.10 ЮЗ 1 10 км 4/0
[Ci fib]
+7.7 -1.1 54 +7 +9 по сезону 1020.2 1000.9
15 22.10 Ю 1 н/о 8/0
[Ci fib]
+6.5 -1.0 59 +6 +6 по сезону 1018.1 998.7
18 22.10 Ю 1 н/о ясно +5.7 -0.8 63 +5 +5 по сезону 1015.6 996.2 +7.9
21 22.10 Ю 1 н/о ясно +4.6 -0.3 70 +4 +4 по сезону 1013.6 994.2
00 23.10 Ю 1 н/о ясно +3.6 -0.2 76 +2 +2 по сезону 1010.5 991.1
03 23.10 Ю 1 н/о 9/9 600 м
[Sc]
+3.5 +0.1 78 +2 +2 по сезону 1007.9 988.5 +3.2
06 23.10 З 1 4000 м слабый дождь 10/10 300 м
[Frnb]
+3.5 +1.9 89 +2 +2 по сезону 1006.3 986.9 +3.2 0.0
09 23.10 штиль 0 4000 м слабый дождь 10/8 300 м
[Frnb Ac As]
+4.7 +3.8 94 +4 +4 по сезону 1005.0 985.7
12 23.10 ЮЗ 1 4000 м дымка {дождь} 10/10 300 м
[Frnb]
+5.5 +4.3 92 +4 +4 по сезону 1002.9 983.8

 

Местоположение метеостанции Москва (город Москва, Россия): широта 55.83 долгота 37.62 высота над уровнем моря 156 м.

В архиве по умолчанию представлена погода в Москве за последнюю неделю. Архивные данные за месяц целиком и за предыдущие месяцы, начиная с января 2011 года, Вы можете получить, выбрав интересующий диапазон дат из раскрывающегося списка и нажав кнопку "Ввод!".


*Определитесь, кто Вы:
робот инопланетянин человек

Внимание! Время в таблицах - всемирное. Для получения местного времени необходимо прибавить поправку, которая в Москве равна 3 ч.

Смотрите также архив погоды в соседних городах и на ближайших метеорологических станциях:

Погода в Москве (Балчуг) (город Москва, Россия) (9 км)
Погода в Москве (Тушино) (город Москва, Россия) (12 км)
Погода в Долгопрудном (Московская область, Россия) (13 км)
Погода в Москве (Строгино) (город Москва, Россия) (14 км)
Погода в Красногорске (Московская область, Россия) (18 км)
Погода в Шереметьево (Московская область, Россия) (20 км)
Погода в Немчиновке (город Москва, Россия) (21 км)
Погода в Железнодорожном АМС (Московская область, Россия) (23 км)
Погода в Луговой (Московская область, Россия) (26 км)
Погода в Пушкино (Московская область, Россия) (26 км)

Пояснения к столбцам:

Ветер - указаны скорость ветра в м/с - средняя за 10 мин, порывы в срок и между сроками (в фигурных скобках) и направление, откуда дует ветер: С - северный, СВ - северо-восточный, В - восточный, ЮВ - юго-восточный, Ю - южный, ЮЗ - юго-западный, З - западный, СЗ - северо-западный.
Видимость - горизонтальная дальность видимости в метрах или километрах. При видимости от 1 до 10 км при отсутствии осадков обычно наблюдается дымка, при ухудшении видимости до 1 км и менее - туман. В сухую погоду видимость может ухудшаться дымом, пылью или мглою.
Явления - указаны атмосферные явления, наблюдавшиеся в срок или в последний час перед сроком; фигурными скобками обозначены явления, наблюдавшиеся между сроками (за 1-3 часа до срока); квадратными скобками обозначены град или гололедные отложения с указанием их диаметра в мм.
Облачность - указаны через наклонную черту общая и нижняя облачность в баллах и высота нижней границы облаков в метрах; квадратными скобками обозначены формы облаков: Ci - перистые, Cs - перисто-слоистые, Cc - перисто-кучевые, Ac - высококучевые, As - высокослоистые, Sc - слоисто-кучевые, Ns - слоисто-дождевые, Cu - кучевые, Cb - кучево-дождевые. Подробнее классификацию облаков см. в Атласе облаков (PDF).
T - Температура воздуха - температура, измеренная на высоте 2 м над землей.
Td - Температура точки росы - температура, при понижении до которой содержащийся в воздухе водяной пар достигнет насыщения.
f - Относительная влажность воздуха - влажноcть воздуха, измеренная на высоте 2 м над землей.
Te - Эффективная температура - температура, которую ощущает одетый по сезону человек в тени. Характеристика душности погоды. При расчете учитывается влияние влажности воздуха и скорости ветра на теплоощущения человека.
Tes - Эффективная температура на солнце - температура, которую ощущает человек, с поправкой на солнечный нагрев. Характеристика знойности погоды. Зависит от высоты солнца над горизонтом, облачности и скорости ветра. Ночью, в пасмурную погоду, а также при ветре 12 м/с и более поправка равна нулю.
P - Атмосферное давление - приведенное к уровню моря атмосферное давление.
Po - Атмосферное давление - измеренное на уровне метеостанции атмосферное давление.
Tmin - Минимальная температура - минимум температуры воздуха на высоте 2 м над землей.
Tmax - Максимальная температура - максимум температуры воздуха на высоте 2 м над землей.
R - Количество осадков - Количество выпавших осадков за период времени, мм. При наведении курсора мыши на число - период времени, за который выпало указанное количество осадков.
R24 - Количество осадков - Количество выпавших осадков за 24 часа, мм.
S - Снежный покров - Высота снежного покрова, см. При наведении курсора мыши на число - состояние снежного покрова и степень покрытия местности в баллах.